Location: Silverdale
(47.6506°N, 122.6941°W)
Time: 02:56:16
(UTC+00:00)

Altair - Pass Details

Date: 05 October 2022
Orbit: 1501 x 1682 km, 47.2° (Epoch: 05 December)

Event Time Altitude Azimuth Distance (km) Brightness Sun altitude
Rises 17:43:28 0° 288° (WNW) 4,877 9.7 29.6°
Reaches altitude 10° 17:46:37 10° 285° (WNW) 3,906 9.3 29.9°
Maximum altitude 17:56:28 62° 208° (SSW) 1,851 8.6 30.9°
Drops below altitude 10° 18:06:23 10° 131° (SE) 3,935 11.0 31.9°
Sets 18:09:35 0° 128° (SE) 4,914 11.1 32.2°
